Time,TemperatureF,DewpointF,PressureIn,WindDirection,WindDirectionDegrees,WindSpeedMPH,WindSpeedGustMPH,Humidity,HourlyPrecipIn,Conditions,Clouds,dailyrainin,SoftwareType,DateUTC
2013-05-15 00:12:00,41.0,-99.9,-100.00,North,-999,-999.0,-999.0,-999,0.00,,,0.02,,2013-05-15 06:12:00,
2013-05-15 00:22:00,41.0,-99.9,-100.00,North,-999,-999.0,-999.0,-999,0.00,,,0.02,,2013-05-15 06:22:00,
2013-05-15 00:32:00,41.0,-99.9,-100.00,North,-999,-999.0,-999.0,-999,0.00,,,0.02,,2013-05-15 06:32:00,
2013-05-15 00:42:00,41.0,-99.9,-100.00,North,-999,-999.0,-999.0,-999,0.00,,,0.02,,2013-05-15 06:42:00,
2013-05-15 01:11:00,39.0,-99.9,-100.00,North,-999,-999.0,-999.0,-999,-99.99,,,0.02,,2013-05-15 07:11:00,
2013-05-15 01:22:00,39.0,-99.9,-100.00,North,-999,-999.0,-999.0,-999,-99.99,,,0.02,,2013-05-15 07:22:00,
2013-05-15 01:33:00,39.0,-99.9,-100.00,North,-999,-999.0,-999.0,-999,-99.99,,,0.02,,2013-05-15 07:33:00,
2013-05-15 01:42:00,39.0,-99.9,-100.00,North,-999,-999.0,-999.0,-999,-99.99,,,0.02,,2013-05-15 07:42:00,
2013-05-15 03:12:00,37.0,-99.9,-100.00,North,-999,-999.0,-999.0,-999,-99.99,,,-99.99,,2013-05-15 09:12:00,
2013-05-15 03:22:00,37.0,-99.9,-100.00,North,-999,-999.0,-999.0,-999,-99.99,,,-99.99,,2013-05-15 09:22:00,
2013-05-15 03:33:00,37.0,-99.9,-100.00,North,-999,-999.0,-999.0,-999,-99.99,,,-99.99,,2013-05-15 09:33:00,
2013-05-15 03:43:00,37.0,-99.9,-100.00,North,-999,-999.0,-999.0,-999,-99.99,,,-99.99,,2013-05-15 09:43:00,
2013-05-15 04:13:00,34.0,-99.9,-100.00,North,-999,-999.0,-999.0,-999,0.01,,,0.00,,2013-05-15 10:13:00,
2013-05-15 04:23:00,34.0,-99.9,-100.00,North,-999,-999.0,-999.0,-999,0.01,,,0.00,,2013-05-15 10:23:00,
2013-05-15 04:33:00,34.0,-99.9,-100.00,North,-999,-999.0,-999.0,-999,0.01,,,0.00,,2013-05-15 10:33:00,
2013-05-15 04:43:00,34.0,-99.9,-100.00,North,-999,-999.0,-999.0,-999,0.01,,,0.00,,2013-05-15 10:43:00,
2013-05-15 04:45:00,34.0,-99.9,-100.00,North,-999,-999.0,-999.0,-999,-99.99,,,-99.99,,2013-05-15 10:45:00,
2013-05-15 05:20:00,34.0,-99.9,-100.00,North,-999,-999.0,-999.0,-999,-99.99,,,-99.99,,2013-05-15 11:20:00,
2013-05-15 05:29:00,34.0,-99.9,-100.00,North,-999,-999.0,-999.0,-999,-99.99,,,-99.99,,2013-05-15 11:29:00,
2013-05-15 05:41:00,34.0,-99.9,-100.00,North,-999,-999.0,-999.0,-999,-99.99,,,-99.99,,2013-05-15 11:41:00,
2013-05-15 05:45:00,31.0,-99.9,-100.00,North,-999,-999.0,-999.0,-999,0.01,,,0.00,,2013-05-15 11:45:00,
2013-05-15 06:18:00,31.0,-99.9,-100.00,North,-999,-999.0,-999.0,-999,0.01,,,0.00,,2013-05-15 12:18:00,
2013-05-15 06:30:00,31.0,-99.9,-100.00,North,-999,-999.0,-999.0,-999,0.01,,,0.00,,2013-05-15 12:30:00,
2013-05-15 06:38:00,31.0,-99.9,-100.00,North,-999,-999.0,-999.0,-999,0.01,,,0.00,,2013-05-15 12:38:00,
2013-05-15 07:29:00,31.0,-99.9,-100.00,North,-999,-999.0,-999.0,-999,-99.99,,,-99.99,,2013-05-15 13:29:00,
2013-05-15 07:38:00,31.0,-99.9,-100.00,North,-999,-999.0,-999.0,-999,-99.99,,,-99.99,,2013-05-15 13:38:00,
2013-05-15 08:15:00,34.0,-99.9,-100.00,North,-999,-999.0,-999.0,-999,-99.99,,,-99.99,,2013-05-15 14:15:00,
2013-05-15 08:30:00,34.0,-99.9,-100.00,North,-999,-999.0,-999.0,-999,-99.99,,,-99.99,,2013-05-15 14:30:00,
2013-05-15 08:45:00,41.0,-99.9,-100.00,North,-999,-999.0,-999.0,-999,-99.99,,,0.00,,2013-05-15 14:45:00,
2013-05-15 09:17:00,41.0,-99.9,-100.00,North,-999,-999.0,-999.0,-999,-99.99,,,0.00,,2013-05-15 15:17:00,
2013-05-15 09:45:00,46.0,-99.9,-100.00,North,-999,-999.0,-999.0,-999,0.00,,,0.00,,2013-05-15 15:45:00,
2013-05-15 10:31:00,46.0,-99.9,-100.00,North,-999,-999.0,-999.0,-999,0.00,,,0.00,,2013-05-15 16:31:00,
2013-05-15 10:41:00,46.0,-99.9,-100.00,North,-999,-999.0,-999.0,-999,0.00,,,0.00,,2013-05-15 16:41:00,
2013-05-15 11:45:00,57.0,-99.9,-100.00,North,-999,-999.0,-999.0,-999,-99.99,,,0.00,,2013-05-15 17:45:00,
2013-05-15 12:18:00,57.0,-99.9,-100.00,North,-999,-999.0,-999.0,-999,-99.99,,,0.00,,2013-05-15 18:18:00,
2013-05-15 12:29:00,57.0,-99.9,-100.00,North,-999,-999.0,-999.0,-999,-99.99,,,0.00,,2013-05-15 18:29:00,
2013-05-15 12:39:00,57.0,-99.9,-100.00,North,-999,-999.0,-999.0,-999,-99.99,,,0.00,,2013-05-15 18:39:00,
2013-05-15 12:45:00,59.0,-99.9,-100.00,North,-999,-999.0,-999.0,-999,0.00,,,0.00,,2013-05-15 18:45:00,
2013-05-15 13:17:00,59.0,-99.9,-100.00,North,-999,-999.0,-999.0,-999,0.00,,,0.00,,2013-05-15 19:17:00,
2013-05-15 13:32:00,59.0,-99.9,-100.00,North,-999,-999.0,-999.0,-999,0.00,,,0.00,,2013-05-15 19:32:00,
2013-05-15 13:40:00,59.0,-99.9,-100.00,North,-999,-999.0,-999.0,-999,0.00,,,0.00,,2013-05-15 19:40:00,
2013-05-15 13:45:00,63.0,-99.9,-100.00,North,-999,-999.0,-999.0,-999,0.00,,,0.00,,2013-05-15 19:45:00,
2013-05-15 14:22:00,63.0,-99.9,-100.00,North,-999,-999.0,-999.0,-999,0.00,,,0.00,,2013-05-15 20:22:00,
2013-05-15 14:31:00,63.0,-99.9,-100.00,North,-999,-999.0,-999.0,-999,0.00,,,0.00,,2013-05-15 20:31:00,
2013-05-15 14:41:00,63.0,-99.9,-100.00,North,-999,-999.0,-999.0,-999,0.00,,,0.00,,2013-05-15 20:41:00,
2013-05-15 14:45:00,64.0,-99.9,-100.00,North,-999,-999.0,-999.0,-999,0.02,,,0.02,,2013-05-15 20:45:00,
2013-05-15 15:21:00,64.0,-99.9,-100.00,North,-999,-999.0,-999.0,-999,0.02,,,0.02,,2013-05-15 21:21:00,
2013-05-15 15:30:00,64.0,-99.9,-100.00,North,-999,-999.0,-999.0,-999,0.02,,,0.02,,2013-05-15 21:30:00,
2013-05-15 15:43:00,64.0,-99.9,-100.00,North,-999,-999.0,-999.0,-999,0.02,,,0.02,,2013-05-15 21:43:00,
2013-05-15 15:45:00,63.0,-99.9,-100.00,North,-999,-999.0,-999.0,-999,0.00,,,0.02,,2013-05-15 21:45:00,
2013-05-15 16:31:00,63.0,-99.9,-100.00,North,-999,-999.0,-999.0,-999,0.00,,,0.02,,2013-05-15 22:31:00,
2013-05-15 16:44:00,63.0,-99.9,-100.00,North,-999,-999.0,-999.0,-999,0.00,,,0.02,,2013-05-15 22:44:00,
2013-05-15 16:45:00,63.0,-99.9,-100.00,North,-999,-999.0,-999.0,-999,-99.99,,,0.00,,2013-05-15 22:45:00,
2013-05-15 17:18:00,63.0,-99.9,-100.00,North,-999,-999.0,-999.0,-999,-99.99,,,0.00,,2013-05-15 23:18:00,
2013-05-15 17:31:00,63.0,-99.9,-100.00,North,-999,-999.0,-999.0,-999,-99.99,,,0.00,,2013-05-15 23:31:00,
2013-05-15 17:40:00,63.0,-99.9,-100.00,North,-999,-999.0,-999.0,-999,-99.99,,,0.00,,2013-05-15 23:40:00,
2013-05-15 17:45:00,62.0,-99.9,-100.00,North,-999,-999.0,-999.0,-999,0.00,,,-99.99,,2013-05-15 23:45:00,
2013-05-15 18:20:00,62.0,-99.9,-100.00,North,-999,-999.0,-999.0,-999,0.00,,,-99.99,,2013-05-16 00:20:00,
2013-05-15 18:37:00,62.0,-99.9,-100.00,North,-999,-999.0,-999.0,-999,0.00,,,-99.99,,2013-05-16 00:37:00,
2013-05-15 18:45:00,61.0,-99.9,-100.00,North,-999,-999.0,-999.0,-999,0.00,,,0.00,,2013-05-16 00:45:00,
2013-05-15 19:20:00,61.0,-99.9,-100.00,North,-999,-999.0,-999.0,-999,0.00,,,0.00,,2013-05-16 01:20:00,
2013-05-15 19:41:00,61.0,-99.9,-100.00,North,-999,-999.0,-999.0,-999,0.00,,,0.00,,2013-05-16 01:41:00,
2013-05-15 20:18:00,59.0,-99.9,-100.00,North,-999,-999.0,-999.0,-999,0.00,,,0.00,,2013-05-16 02:18:00,
2013-05-15 20:41:00,59.0,-99.9,-100.00,North,-999,-999.0,-999.0,-999,0.00,,,0.00,,2013-05-16 02:41:00,
2013-05-15 20:45:00,55.0,-99.9,-100.00,North,-999,-999.0,-999.0,-999,0.00,,,0.00,,2013-05-16 02:45:00,
2013-05-15 21:18:00,55.0,-99.9,-100.00,North,-999,-999.0,-999.0,-999,0.00,,,0.00,,2013-05-16 03:18:00,
2013-05-15 21:28:00,55.0,-99.9,-100.00,North,-999,-999.0,-999.0,-999,0.00,,,0.00,,2013-05-16 03:28:00,
2013-05-15 21:42:00,55.0,-99.9,-100.00,North,-999,-999.0,-999.0,-999,0.00,,,0.00,,2013-05-16 03:42:00,
2013-05-15 22:13:00,51.0,-99.9,-100.00,North,-999,-999.0,-999.0,-999,0.00,,,0.00,,2013-05-16 04:13:00,
2013-05-15 22:23:00,51.0,-99.9,-100.00,North,-999,-999.0,-999.0,-999,0.00,,,0.00,,2013-05-16 04:23:00,
2013-05-15 22:33:00,51.0,-99.9,-100.00,North,-999,-999.0,-999.0,-999,0.00,,,0.00,,2013-05-16 04:33:00,
2013-05-15 22:43:00,51.0,-99.9,-100.00,North,-999,-999.0,-999.0,-999,0.00,,,0.00,,2013-05-16 04:43:00,
2013-05-15 23:12:00,48.0,-99.9,-100.00,North,-999,-999.0,-999.0,-999,-99.99,,,-99.99,,2013-05-16 05:12:00,
2013-05-15 23:22:00,48.0,-99.9,-100.00,North,-999,-999.0,-999.0,-999,-99.99,,,-99.99,,2013-05-16 05:22:00,
2013-05-15 23:32:00,48.0,-99.9,-100.00,North,-999,-999.0,-999.0,-999,-99.99,,,-99.99,,2013-05-16 05:32:00,
2013-05-15 23:42:00,48.0,-99.9,-100.00,North,-999,-999.0,-999.0,-999,-99.99,,,-99.99,,2013-05-16 05:42:00,